,�O�C���x,�����t���O,�O�C���x,�����t���O,�󒲎����x,�����t���O,�󒲎����x,�����t���O,��󒲎����x,�����t���O,����,�����t���O
2003/12/1 0:00,15,0,54,0,=,2,=,2,20.1,0,17.9,0
2003/12/1 0:15,14.9,0,53,0,=,2,=,2,20.1,0,17.9,0
2003/12/1 0:30,14.9,0,52,0,=,2,=,2,20.1,0,18,0
2003/12/1 0:45,14.9,0,53,0,=,2,=,2,20.1,0,18.1,0
2003/12/1 1:00,15,0,53,0,=,2,=,2,20.1,0,17.5,0
2003/12/1 1:15,14.9,0,54,0,=,2,=,2,20.1,0,17.2,0
2003/12/1 1:30,15,0,58,0,=,2,=,2,20.1,0,17.3,0
2003/12/1 1:45,15,0,55,0,=,2,=,2,20,0,17.4,0
2003/12/1 2:00,14.8,0,57,0,=,2,=,2,20,0,17.4,0
2003/12/1 2:15,14.8,0,58,0,=,2,=,2,20,0,17.5,0
2003/12/1 2:30,14.6,0,57,0,=,2,=,2,20,0,17.6,0
2003/12/1 2:45,14.5,0,57,0,=,2,=,2,19.9,0,17.6,0
2003/12/1 3:00,14.7,0,55,0,=,2,=,2,19.9,0,17.7,0
2003/12/1 3:15,14.5,0,53,0,=,2,=,2,19.9,0,17.7,0
2003/12/1 3:30,14.7,0,55,0,=,2,=,2,19.9,0,17.8,0
2003/12/1 3:45,14.6,0,55,0,=,2,=,2,19.8,0,17.9,0
2003/12/1 4:00,14.5,0,53,0,=,2,=,2,19.8,0,17.9,0
2003/12/1 4:15,14.3,0,51,0,=,2,=,2,19.8,0,18,0
2003/12/1 4:30,14.4,0,53,0,=,2,=,2,19.8,0,18.1,0
2003/12/1 4:45,14.5,0,52,0,=,2,=,2,19.8,0,18.1,0
2003/12/1 5:00,14.4,0,50,0,=,2,=,2,19.7,0,18.2,0
2003/12/1 5:15,14.3,0,51,0,=,2,=,2,19.7,0,18.2,0
2003/12/1 5:30,14.3,0,52,0,=,2,=,2,19.7,0,18.3,0
2003/12/1 5:45,14.2,0,52,0,=,2,=,2,19.7,0,18.3,0
2003/12/1 6:00,14.2,0,53,0,=,2,=,2,19.7,0,18.4,0
2003/12/1 6:15,14.2,0,51,0,=,2,=,2,19.6,0,15.6,0
2003/12/1 6:30,14.1,0,50,0,=,2,=,2,19.6,0,15.7,0
2003/12/1 6:45,14.2,0,50,0,=,2,=,2,19.6,0,15.8,0
2003/12/1 7:00,14.3,0,50,0,=,2,=,2,19.6,0,15.8,0
2003/12/1 7:15,14.4,0,53,0,=,2,=,2,19.6,0,16,0
2003/12/1 7:30,14.3,0,54,0,=,2,=,2,19.6,0,16.1,0
2003/12/1 7:45,14.3,0,54,0,=,2,=,2,19.7,0,16.4,0
2003/12/1 8:00,14.3,0,54,0,=,2,=,2,19.7,0,16.5,0
2003/12/1 8:15,14.3,0,56,0,=,2,=,2,19.8,0,16.5,0
2003/12/1 8:30,14.5,0,57,0,=,2,=,2,19.7,0,16.6,0
2003/12/1 8:45,14.7,0,58,0,=,2,=,2,19.7,0,16.7,0
2003/12/1 9:00,14.6,0,60,0,=,2,=,2,19.7,0,16.8,0
2003/12/1 9:15,14.9,0,59,0,=,2,=,2,19.6,0,16.8,0
2003/12/1 9:30,15.1,0,58,0,=,2,=,2,19.6,0,16.9,0
2003/12/1 9:45,15.4,0,56,0,=,2,=,2,19.5,0,17,0
2003/12/1 10:00,16,0,54,0,=,2,=,2,19.5,0,17,0
2003/12/1 10:15,17.8,0,46,0,=,2,=,2,19.5,0,17.1,0
2003/12/1 10:30,18.9,0,45,0,=,2,=,2,19.5,0,17.2,0
2003/12/1 10:45,17.9,0,46,0,=,2,=,2,19.5,0,17.2,0
2003/12/1 11:00,17,0,49,0,=,2,=,2,19.4,0,17.3,0
2003/12/1 11:15,17.5,0,49,0,=,2,=,2,19.4,0,17.4,0
2003/12/1 11:30,16.9,0,50,0,=,2,=,2,19.4,0,17.4,0
2003/12/1 11:45,16.7,0,50,0,=,2,=,2,19.4,0,17.5,0
2003/12/1 12:00,16.5,0,51,0,=,2,=,2,19.4,0,17.6,0
2003/12/1 12:15,16.3,0,51,0,=,2,=,2,19.4,0,17.6,0
2003/12/1 12:30,16.1,0,52,0,=,2,=,2,19.3,0,17.7,0
2003/12/1 12:45,16.1,0,54,0,=,2,=,2,19.3,0,17.7,0
2003/12/1 13:00,16.2,0,49,0,=,2,=,2,19.3,0,17.8,0
2003/12/1 13:15,15.9,0,48,0,=,2,=,2,19.3,0,17.9,0
2003/12/1 13:30,16.3,0,52,0,=,2,=,2,19.3,0,17.9,0
2003/12/1 13:45,16.5,0,54,0,=,2,=,2,19.3,0,18,0
2003/12/1 14:00,16.4,0,53,0,=,2,=,2,19.3,0,18,0
2003/12/1 14:15,16.2,0,54,0,=,2,=,2,19.3,0,18.1,0
2003/12/1 14:30,16.3,0,52,0,=,2,=,2,19.3,0,18.1,0
2003/12/1 14:45,16.3,0,53,0,=,2,=,2,19.3,0,18.2,0
2003/12/1 15:00,15.8,0,56,0,=,2,=,2,19.3,0,18.2,0
2003/12/1 15:15,15.8,0,53,0,=,2,=,2,19.3,0,18.3,0
2003/12/1 15:30,15.7,0,57,0,=,2,=,2,19.3,0,18.3,0
2003/12/1 15:45,15.5,0,58,0,=,2,=,2,19.3,0,18.4,0
2003/12/1 16:00,15.4,0,60,0,=,2,=,2,19.3,0,18.4,0
2003/12/1 16:15,15.5,0,53,0,=,2,=,2,19.4,0,18.5,0
2003/12/1 16:30,15.4,0,55,0,=,2,=,2,19.5,0,17.6,0
2003/12/1 16:45,15.5,0,56,0,=,2,=,2,19.6,0,17.6,0
2003/12/1 17:00,15.1,0,55,0,=,2,=,2,19.6,0,17.7,0
2003/12/1 17:15,15.3,0,60,0,=,2,=,2,19.6,0,17.7,0
2003/12/1 17:30,15,0,58,0,=,2,=,2,19.6,0,17.8,0
2003/12/1 17:45,15.1,0,60,0,=,2,=,2,19.6,0,17.8,0
2003/12/1 18:00,15.2,0,58,0,=,2,=,2,19.5,0,16.7,0
2003/12/1 18:15,15.1,0,57,0,=,2,=,2,19.6,0,16.8,0
2003/12/1 18:30,15.1,0,58,0,=,2,=,2,19.6,0,17.1,0
2003/12/1 18:45,14.9,0,57,0,=,2,=,2,19.6,0,17.1,0
2003/12/1 19:00,15,0,57,0,=,2,=,2,19.6,0,17.2,0
2003/12/1 19:15,15.1,0,57,0,=,2,=,2,19.6,0,17.2,0
2003/12/1 19:30,15,0,56,0,=,2,=,2,19.6,0,17.2,0
2003/12/1 19:45,15,0,56,0,=,2,=,2,19.6,0,17.2,0
2003/12/1 20:00,14.9,0,57,0,=,2,=,2,19.7,0,16.8,0
2003/12/1 20:15,15,0,55,0,=,2,=,2,19.7,0,16.5,0
2003/12/1 20:30,15,0,55,0,=,2,=,2,19.8,0,16.5,0
2003/12/1 20:45,15,0,54,0,=,2,=,2,19.7,0,17.1,0
2003/12/1 21:00,14.8,0,54,0,=,2,=,2,19.7,0,17.2,0
2003/12/1 21:15,14.8,0,53,0,=,2,=,2,19.7,0,17.4,0
2003/12/1 21:30,14.7,0,54,0,=,2,=,2,19.8,0,17.7,0
2003/12/1 21:45,14.8,0,54,0,=,2,=,2,19.8,0,17.7,0
2003/12/1 22:00,14.6,0,52,0,=,2,=,2,19.7,0,17.2,0
2003/12/1 22:15,14.7,0,52,0,=,2,=,2,19.7,0,17.3,0
2003/12/1 22:30,14.6,0,54,0,=,2,=,2,19.7,0,16.6,0
2003/12/1 22:45,14.6,0,54,0,=,2,=,2,19.8,0,16.7,0
2003/12/1 23:00,14.7,0,54,0,=,2,=,2,19.7,0,16.7,0
2003/12/1 23:15,14.6,0,54,0,=,2,=,2,19.6,0,17,0
2003/12/1 23:30,14.5,0,53,0,=,2,=,2,19.6,0,17.1,0
2003/12/1 23:45,14.6,0,54,0,=,2,=,2,19.5,0,17.3,0
2003/12/2 0:00,14.7,0,53,0,=,2,=,2,19.5,0,17.5,0
2003/12/2 0:15,14.6,0,54,0,=,2,=,2,19.4,0,17.5,0
2003/12/2 0:30,14.6,0,54,0,=,2,=,2,19.4,0,17.6,0
2003/12/2 0:45,14.6,0,55,0,=,2,=,2,19.4,0,17.6,0
2003/12/2 1:00,14.4,0,54,0,=,2,=,2,19.4,0,17.7,0
2003/12/2 1:15,14.4,0,53,0,=,2,=,2,19.4,0,17.7,0
2003/12/2 1:30,14.5,0,55,0,=,2,=,2,19.3,0,17.8,0
2003/12/2 1:45,14.5,0,54,0,=,2,=,2,19.3,0,17.8,0
2003/12/2 2:00,14.5,0,55,0,=,2,=,2,19.3,0,17.9,0
2003/12/2 2:15,14.5,0,54,0,=,2,=,2,19.2,0,17.9,0
2003/12/2 2:30,14.3,0,53,0,=,2,=,2,19.2,0,18,0
2003/12/2 2:45,14.2,0,52,0,=,2,=,2,19.2,0,18,0
2003/12/2 3:00,14.3,0,52,0,=,2,=,2,19.2,0,18.1,0
2003/12/2 3:15,14.2,0,54,0,=,2,=,2,19.1,0,18.1,0
2003/12/2 3:30,14.2,0,54,0,=,2,=,2,19.1,0,18.2,0
2003/12/2 3:45,14.2,0,54,0,=,2,=,2,19.1,0,18.2,0
2003/12/2 4:00,14.2,0,54,0,=,2,=,2,19.1,0,18.3,0
2003/12/2 4:15,14.1,0,54,0,=,2,=,2,19,0,18.3,0
2003/12/2 4:30,14.2,0,54,0,=,2,=,2,19,0,18.4,0
2003/12/2 4:45,14.2,0,54,0,=,2,=,2,19,0,18.4,0
2003/12/2 5:00,13.9,0,55,0,=,2,=,2,19,0,18.5,0
2003/12/2 5:15,14,0,55,0,=,2,=,2,19,0,18.5,0
2003/12/2 5:30,14.1,0,55,0,=,2,=,2,18.9,0,18.6,0
2003/12/2 5:45,14.1,0,56,0,=,2,=,2,18.9,0,18.6,0
2003/12/2 6:00,14.1,0,57,0,=,2,=,2,18.9,0,18.7,0
2003/12/2 6:15,14.1,0,57,0,=,2,=,2,18.9,0,18.7,0
2003/12/2 6:30,14.1,0,57,0,=,2,=,2,18.9,0,18.8,0
2003/12/2 6:45,14.1,0,57,0,=,2,=,2,18.9,0,18.8,0
2003/12/2 7:00,14.1,0,57,0,=,2,=,2,18.8,0,19.2,0
2003/12/2 7:15,14.1,0,57,0,=,2,=,2,18.8,0,16.3,0
2003/12/2 7:30,14.1,0,57,0,=,2,=,2,18.8,0,16.5,0
2003/12/2 7:45,14.2,0,57,0,=,2,=,2,18.8,0,16.1,0
2003/12/2 8:00,14.3,0,56,0,=,2,=,2,19,0,16.3,0
2003/12/2 8:15,14.5,0,56,0,=,2,=,2,19.1,0,16.3,0
2003/12/2 8:30,14.5,0,55,0,=,2,=,2,19.1,0,16.4,0
2003/12/2 8:45,14.3,0,56,0,=,2,=,2,19.1,0,16.5,0
2003/12/2 9:00,14.6,0,56,0,=,2,=,2,19.1,0,16.5,0
2003/12/2 9:15,14.8,0,54,0,=,2,=,2,19.1,0,16.6,0
2003/12/2 9:30,14.8,0,54,0,=,2,=,2,19,0,16.7,0
2003/12/2 9:45,15,0,54,0,=,2,=,2,19,0,16.8,0
2003/12/2 10:00,15,0,54,0,=,2,=,2,19,0,16.8,0
2003/12/2 10:15,15.1,0,53,0,=,2,=,2,19,0,16.9,0
2003/12/2 10:30,15.1,0,53,0,=,2,=,2,19,0,17,0
2003/12/2 10:45,15.2,0,54,0,=,2,=,2,18.9,0,17,0
2003/12/2 11:00,15.6,0,53,0,=,2,=,2,18.9,0,17.1,0
2003/12/2 11:15,16.8,0,49,0,=,2,=,2,18.9,0,17.2,0
2003/12/2 11:30,16.6,0,49,0,=,2,=,2,18.9,0,17.2,0
2003/12/2 11:45,16.6,0,50,0,=,2,=,2,18.9,0,17.3,0
2003/12/2 12:00,16.2,0,52,0,=,2,=,2,18.9,0,17.4,0
2003/12/2 12:15,16.5,0,53,0,=,2,=,2,18.9,0,17.4,0
2003/12/2 12:30,16.6,0,52,0,=,2,=,2,18.9,0,17.5,0
2003/12/2 12:45,16.6,0,52,0,=,2,=,2,18.9,0,17.6,0
2003/12/2 13:00,16.4,0,51,0,=,2,=,2,18.9,0,17.6,0
2003/12/2 13:15,16.5,0,52,0,=,2,=,2,18.9,0,17.7,0
2003/12/2 13:30,16.7,0,53,0,=,2,=,2,18.9,0,17.8,0
2003/12/2 13:45,16.3,0,51,0,=,2,=,2,18.9,0,17.8,0
2003/12/2 14:00,16.1,0,51,0,=,2,=,2,18.9,0,17.9,0
2003/12/2 14:15,16.1,0,53,0,=,2,=,2,18.9,0,17.9,0
2003/12/2 14:30,16.3,0,54,0,=,2,=,2,18.9,0,18,0
2003/12/2 14:45,15.8,0,55,0,=,2,=,2,18.9,0,18,0
2003/12/2 15:00,15.9,0,54,0,=,2,=,2,19,0,18.1,0
2003/12/2 15:15,15.9,0,53,0,=,2,=,2,19,0,18.1,0
2003/12/2 15:30,15.7,0,54,0,=,2,=,2,19,0,18.2,0
2003/12/2 15:45,15.8,0,53,0,=,2,=,2,19,0,18.2,0
2003/12/2 16:00,15.8,0,55,0,=,2,=,2,19,0,18.3,0
2003/12/2 16:15,15.6,0,55,0,=,2,=,2,18.9,0,18.3,0
2003/12/2 16:30,15.7,0,54,0,=,2,=,2,19,0,17.3,0
2003/12/2 16:45,15.6,0,54,0,=,2,=,2,19,0,17.4,0
2003/12/2 17:00,15.3,0,55,0,=,2,=,2,19.1,0,17.5,0
2003/12/2 17:15,15.3,0,55,0,=,2,=,2,19.1,0,17.5,0
2003/12/2 17:30,15.1,0,55,0,=,2,=,2,19.1,0,17.6,0
2003/12/2 17:45,15,0,56,0,=,2,=,2,19.2,0,17.6,0
2003/12/2 18:00,15.1,0,56,0,=,2,=,2,19.3,0,17.3,0
2003/12/2 18:15,15.2,0,55,0,=,2,=,2,19.4,0,17.3,0
2003/12/2 18:30,15.1,0,56,0,=,2,=,2,19.4,0,17.4,0
2003/12/2 18:45,15,0,57,0,=,2,=,2,19.4,0,17.5,0
2003/12/2 19:00,15.3,0,57,0,=,2,=,2,19.4,0,17.5,0
2003/12/2 19:15,15.2,0,56,0,=,2,=,2,19.5,0,16.7,0
2003/12/2 19:30,15.2,0,56,0,=,2,=,2,19.5,0,16.8,0
2003/12/2 19:45,15.2,0,55,0,=,2,=,2,19.5,0,17.1,0
2003/12/2 20:00,14.8,0,56,0,=,2,=,2,19.5,0,16.4,0
2003/12/2 20:15,14.7,0,56,0,=,2,=,2,19.6,0,16.5,0
2003/12/2 20:30,14.8,0,57,0,=,2,=,2,19.6,0,16.5,0
2003/12/2 20:45,14.6,0,58,0,=,2,=,2,19.7,0,16.6,0
2003/12/2 21:00,14.7,0,58,0,=,2,=,2,19.7,0,16.7,0
2003/12/2 21:15,14.8,0,63,0,=,2,=,2,19.8,0,17.1,0
2003/12/2 21:30,14.7,0,61,0,=,2,=,2,19.8,0,17.2,0
2003/12/2 21:45,14.6,0,61,0,=,2,=,2,19.8,0,17.3,0
2003/12/2 22:00,14.6,0,61,0,=,2,=,2,19.8,0,17.3,0
2003/12/2 22:15,14.1,0,64,0,=,2,=,2,19.8,0,17.4,0
2003/12/2 22:30,14,0,65,0,=,2,=,2,19.9,0,17.1,0
2003/12/2 22:45,14.1,0,64,0,=,2,=,2,19.9,0,17.2,0
2003/12/2 23:00,14.2,0,64,0,=,2,=,2,20,0,17.5,0
2003/12/2 23:15,14,0,65,0,=,2,=,2,20,0,17.5,0
2003/12/2 23:30,14,0,66,0,=,2,=,2,19.9,0,17,0
2003/12/2 23:45,14.2,0,66,0,=,2,=,2,19.9,0,17.1,0
2003/12/3 0:00,14,0,66,0,=,2,=,2,19.9,0,17.4,0
2003/12/3 0:15,14.1,0,66,0,=,2,=,2,19.9,0,17.4,0
2003/12/3 0:30,13.9,0,67,0,=,2,=,2,19.9,0,17.5,0
2003/12/3 0:45,13.8,0,66,0,=,2,=,2,19.9,0,17.5,0
2003/12/3 1:00,14.1,0,65,0,=,2,=,2,19.9,0,17.6,0
2003/12/3 1:15,14.1,0,64,0,=,2,=,2,19.9,0,17.7,0
2003/12/3 1:30,14.1,0,65,0,=,2,=,2,19.9,0,17.7,0
2003/12/3 1:45,14.2,0,66,0,=,2,=,2,19.9,0,17.8,0
2003/12/3 2:00,14,0,65,0,=,2,=,2,19.8,0,17.8,0
2003/12/3 2:15,14,0,66,0,=,2,=,2,19.8,0,18.3,0
2003/12/3 2:30,14.1,0,67,0,=,2,=,2,19.8,0,18.4,0
2003/12/3 2:45,14.1,0,66,0,=,2,=,2,19.8,0,18.4,0
2003/12/3 3:00,13.9,0,67,0,=,2,=,2,19.8,0,18.5,0
2003/12/3 3:15,13.8,0,67,0,=,2,=,2,19.7,0,18.5,0
2003/12/3 3:30,13.5,0,67,0,=,2,=,2,19.7,0,18.6,0
2003/12/3 3:45,13.5,0,68,0,=,2,=,2,19.7,0,18.6,0
2003/12/3 4:00,13.3,0,69,0,=,2,=,2,19.7,0,18.7,0
2003/12/3 4:15,13.4,0,69,0,=,2,=,2,19.7,0,18.7,0
2003/12/3 4:30,13.2,0,70,0,=,2,=,2,19.6,0,18.8,0
2003/12/3 4:45,12.8,0,73,0,=,2,=,2,19.6,0,18.8,0
2003/12/3 5:00,12.9,0,74,0,=,2,=,2,19.6,0,18.9,0
2003/12/3 5:15,12.7,0,75,0,=,2,=,2,19.6,0,18.9,0
2003/12/3 5:30,12.6,0,74,0,=,2,=,2,19.6,0,19,0
2003/12/3 5:45,12.5,0,74,0,=,2,=,2,19.5,0,19,0
2003/12/3 6:00,12.4,0,74,0,=,2,=,2,19.5,0,19.1,0
2003/12/3 6:15,12.6,0,75,0,=,2,=,2,19.5,0,19.1,0
2003/12/3 6:30,12.4,0,76,0,=,2,=,2,19.5,0,19.2,0
2003/12/3 6:45,12.4,0,77,0,=,2,=,2,19.5,0,16.3,0
2003/12/3 7:00,12.2,0,78,0,=,2,=,2,19.5,0,16.1,0
2003/12/3 7:15,12.2,0,78,0,=,2,=,2,19.4,0,16.2,0
2003/12/3 7:30,12.6,0,78,0,=,2,=,2,19.4,0,16,0
2003/12/3 7:45,12.7,0,76,0,=,2,=,2,19.5,0,16,0
2003/12/3 8:00,13.2,0,75,0,=,2,=,2,19.6,0,16.3,0
2003/12/3 8:15,13.6,0,73,0,=,2,=,2,19.7,0,16.4,0
2003/12/3 8:30,14.1,0,70,0,=,2,=,2,19.7,0,16.4,0
2003/12/3 8:45,14.7,0,67,0,=,2,=,2,19.7,0,16.5,0
2003/12/3 9:00,15.1,0,63,0,=,2,=,2,19.7,0,16.6,0
2003/12/3 9:15,15.5,0,63,0,=,2,=,2,19.7,0,16.7,0
2003/12/3 9:30,16.7,0,57,0,=,2,=,2,19.6,0,16.8,0
2003/12/3 9:45,18.4,0,53,0,=,2,=,2,19.6,0,16.8,0
2003/12/3 10:00,22.4,0,39,0,=,2,=,2,19.6,0,16.9,0
2003/12/3 10:15,24.7,0,33,0,=,2,=,2,19.6,0,17,0
2003/12/3 10:30,26.5,0,24,0,=,2,=,2,19.6,0,17.1,0
2003/12/3 10:45,26.9,0,23,0,=,2,=,2,19.6,0,17.2,0
2003/12/3 11:00,27.9,0,22,0,=,2,=,2,19.5,0,17.2,0
2003/12/3 11:15,26.8,0,22,0,=,2,=,2,19.5,0,17.3,0
2003/12/3 11:30,20.4,0,34,0,=,2,=,2,19.5,0,17.4,0
2003/12/3 11:45,19.6,0,35,0,=,2,=,2,19.5,0,17.5,0
2003/12/3 12:00,18.7,0,34,0,=,2,=,2,19.5,0,17.6,0
2003/12/3 12:15,18.1,0,35,0,=,2,=,2,19.5,0,17.6,0
2003/12/3 12:30,18.1,0,37,0,=,2,=,2,19.5,0,17.7,0
2003/12/3 12:45,17.8,0,38,0,=,2,=,2,19.5,0,17.8,0
2003/12/3 13:00,17.8,0,38,0,=,2,=,2,19.5,0,17.9,0
2003/12/3 13:15,17.7,0,42,0,=,2,=,2,19.5,0,17.9,0
2003/12/3 13:30,17.7,0,45,0,=,2,=,2,19.5,0,18,0
2003/12/3 13:45,17.6,0,45,0,=,2,=,2,19.5,0,18.1,0
2003/12/3 14:00,17.6,0,45,0,=,2,=,2,19.5,0,18.1,0
2003/12/3 14:15,17.2,0,44,0,=,2,=,2,19.5,0,18.2,0
2003/12/3 14:30,17.4,0,45,0,=,2,=,2,19.6,0,18.3,0
2003/12/3 14:45,17.1,0,45,0,=,2,=,2,19.6,0,18.3,0
2003/12/3 15:00,16.9,0,44,0,=,2,=,2,19.6,0,18.4,0
2003/12/3 15:15,16.9,0,44,0,=,2,=,2,19.6,0,18.5,0
2003/12/3 15:30,16.8,0,44,0,=,2,=,2,19.6,0,18.5,0
2003/12/3 15:45,16.7,0,45,0,=,2,=,2,19.6,0,18.6,0
2003/12/3 16:00,16.4,0,46,0,=,2,=,2,19.7,0,18.6,0
2003/12/3 16:15,16.1,0,46,0,=,2,=,2,19.7,0,18.7,0
2003/12/3 16:30,16.1,0,46,0,=,2,=,2,19.7,0,18.8,0
2003/12/3 16:45,16,0,45,0,=,2,=,2,19.7,0,18.8,0
2003/12/3 17:00,15.8,0,45,0,=,2,=,2,19.8,0,18.9,0
2003/12/3 17:15,15.7,0,45,0,=,2,=,2,19.9,0,17.3,0
2003/12/3 17:30,15.5,0,44,0,=,2,=,2,19.9,0,17.3,0
2003/12/3 17:45,15.5,0,43,0,=,2,=,2,19.9,0,17.4,0
2003/12/3 18:00,15.4,0,44,0,=,2,=,2,19.9,0,17.5,0
2003/12/3 18:15,15.4,0,43,0,=,2,=,2,20,0,17.6,0
2003/12/3 18:30,15.2,0,44,0,=,2,=,2,20,0,17.6,0
2003/12/3 18:45,15,0,44,0,=,2,=,2,20,0,17.7,0
2003/12/3 19:00,15.1,0,45,0,=,2,=,2,20.1,0,17.8,0
2003/12/3 19:15,15,0,44,0,=,2,=,2,20.1,0,17.8,0
2003/12/3 19:30,15.2,0,44,0,=,2,=,2,20.1,0,17.3,0
2003/12/3 19:45,14.9,0,46,0,=,2,=,2,20.2,0,17.3,0
2003/12/3 20:00,14.7,0,47,0,=,2,=,2,20.2,0,17.4,0
2003/12/3 20:15,14.8,0,51,0,=,2,=,2,20.2,0,17.5,0
2003/12/3 20:30,14.5,0,54,0,=,2,=,2,20.2,0,17.5,0
2003/12/3 20:45,14.7,0,57,0,=,2,=,2,20.1,0,17.6,0
2003/12/3 21:00,14.3,0,57,0,=,2,=,2,20.1,0,17.5,0
2003/12/3 21:15,14.4,0,56,0,=,2,=,2,20.1,0,17.6,0
2003/12/3 21:30,14,0,55,0,=,2,=,2,20.1,0,17.8,0
2003/12/3 21:45,13.8,0,56,0,=,2,=,2,20.2,0,16.8,0
2003/12/3 22:00,13.7,0,56,0,=,2,=,2,20.3,0,16.8,0
2003/12/3 22:15,13.5,0,56,0,=,2,=,2,20.2,0,16.9,0
2003/12/3 22:30,13.7,0,56,0,=,2,=,2,20.2,0,16.9,0
2003/12/3 22:45,13.5,0,56,0,=,2,=,2,20.1,0,17,0
2003/12/3 23:00,13.2,0,58,0,=,2,=,2,20.1,0,17.5,0
2003/12/3 23:15,13.2,0,61,0,=,2,=,2,20.1,0,17.6,0
2003/12/3 23:30,13.1,0,63,0,=,2,=,2,20,0,17.7,0
2003/12/3 23:45,12.9,0,63,0,=,2,=,2,20,0,18,0
2003/12/4 0:00,12.9,0,61,0,=,2,=,2,20,0,16.7,0
2003/12/4 0:15,12.9,0,62,0,=,2,=,2,20,0,16.8,0
2003/12/4 0:30,12.5,0,62,0,=,2,=,2,19.9,0,16.8,0
2003/12/4 0:45,12.5,0,64,0,=,2,=,2,19.9,0,16.7,0
2003/12/4 1:00,12.2,0,65,0,=,2,=,2,19.9,0,16.7,0
2003/12/4 1:15,12,0,66,0,=,2,=,2,19.9,0,16.8,0
2003/12/4 1:30,12.2,0,65,0,=,2,=,2,19.9,0,16.9,0
2003/12/4 1:45,11.5,0,66,0,=,2,=,2,19.8,0,16.9,0
2003/12/4 2:00,11.4,0,64,0,=,2,=,2,19.8,0,17,0
2003/12/4 2:15,11.3,0,64,0,=,2,=,2,19.8,0,17.1,0
2003/12/4 2:30,11,0,64,0,=,2,=,2,19.8,0,17.1,0
2003/12/4 2:45,10.6,0,64,0,=,2,=,2,19.8,0,17.2,0
2003/12/4 3:00,10.5,0,65,0,=,2,=,2,19.7,0,17.3,0
2003/12/4 3:15,10.5,0,63,0,=,2,=,2,19.7,0,17.3,0
2003/12/4 3:30,10.4,0,63,0,=,2,=,2,19.6,0,17.4,0
2003/12/4 3:45,10.2,0,62,0,=,2,=,2,19.6,0,17.5,0
2003/12/4 4:00,10.1,0,63,0,=,2,=,2,19.6,0,17.5,0
2003/12/4 4:15,10,0,62,0,=,2,=,2,19.5,0,17.6,0
2003/12/4 4:30,10,0,62,0,=,2,=,2,19.5,0,17.7,0
2003/12/4 4:45,10.1,0,62,0,=,2,=,2,19.5,0,17.7,0
2003/12/4 5:00,10,0,60,0,=,2,=,2,19.4,0,17.8,0
2003/12/4 5:15,10.1,0,60,0,=,2,=,2,19.4,0,17.9,0
2003/12/4 5:30,10.1,0,60,0,=,2,=,2,19.3,0,17.9,0
2003/12/4 5:45,10,0,60,0,=,2,=,2,19.3,0,18,0
2003/12/4 6:00,9.9,0,61,0,=,2,=,2,19.3,0,18,0
2003/12/4 6:15,9.7,0,60,0,=,2,=,2,19.2,0,18.1,0
2003/12/4 6:30,9.8,0,62,0,=,2,=,2,19.2,0,18.7,0
2003/12/4 6:45,9.7,0,60,0,=,2,=,2,19.2,0,14.4,0
2003/12/4 7:00,9.8,0,61,0,=,2,=,2,19.2,0,14.7,0
2003/12/4 7:15,9.5,0,61,0,=,2,=,2,19.2,0,14.7,0
2003/12/4 7:30,9.5,0,63,0,=,2,=,2,19.2,0,15.4,0
2003/12/4 7:45,9.8,0,63,0,=,2,=,2,19.2,0,15.7,0
2003/12/4 8:00,10.3,0,60,0,=,2,=,2,19.3,0,15.8,0
2003/12/4 8:15,11.2,0,57,0,=,2,=,2,19.4,0,15.8,0
2003/12/4 8:30,11,0,56,0,=,2,=,2,19.4,0,16.2,0
2003/12/4 8:45,11.9,0,56,0,=,2,=,2,19.4,0,16.3,0
2003/12/4 9:00,12.9,0,52,0,=,2,=,2,19.4,0,16.4,0
2003/12/4 9:15,13.6,0,49,0,=,2,=,2,19.4,0,16.4,0
2003/12/4 9:30,14.3,0,48,0,=,2,=,2,19.3,0,16.5,0
2003/12/4 9:45,15.8,0,44,0,=,2,=,2,19.3,0,16.6,0
2003/12/4 10:00,20.4,0,33,0,=,2,=,2,19.2,0,16.7,0
2003/12/4 10:15,22.6,0,28,0,=,2,=,2,19.2,0,16.7,0
2003/12/4 10:30,25.3,0,21,0,=,2,=,2,19.2,0,16.8,0
2003/12/4 10:45,25.9,0,17,0,=,2,=,2,19.1,0,16.9,0
2003/12/4 11:00,26.4,0,15,0,=,2,=,2,19.1,0,16.9,0
2003/12/4 11:15,25.5,0,15,0,=,2,=,2,19.1,0,17,0
2003/12/4 11:30,18,0,26,0,=,2,=,2,19.1,0,17.1,0
2003/12/4 11:45,16.7,0,30,0,=,2,=,2,19,0,17.1,0
2003/12/4 12:00,16.4,0,30,0,=,2,=,2,19,0,17.2,0
2003/12/4 12:15,16,0,33,0,=,2,=,2,19,0,17.3,0
2003/12/4 12:30,15.5,0,35,0,=,2,=,2,19,0,17.3,0
2003/12/4 12:45,15.4,0,35,0,=,2,=,2,18.9,0,17.4,0
2003/12/4 13:00,15.4,0,35,0,=,2,=,2,18.9,0,17.5,0
2003/12/4 13:15,15.5,0,38,0,=,2,=,2,18.9,0,17.5,0
2003/12/4 13:30,15.4,0,42,0,=,2,=,2,18.9,0,17.6,0
2003/12/4 13:45,15.3,0,43,0,=,2,=,2,18.9,0,17.6,0
2003/12/4 14:00,15.3,0,43,0,=,2,=,2,18.9,0,17.7,0
2003/12/4 14:15,15.1,0,44,0,=,2,=,2,18.9,0,17.8,0
2003/12/4 14:30,14.9,0,42,0,=,2,=,2,18.9,0,17.8,0
2003/12/4 14:45,14.9,0,40,0,=,2,=,2,18.9,0,17.9,0
2003/12/4 15:00,14.8,0,40,0,=,2,=,2,18.9,0,17.9,0
2003/12/4 15:15,14.7,0,38,0,=,2,=,2,18.9,0,18,0
2003/12/4 15:30,14.8,0,35,0,=,2,=,2,18.9,0,18,0
2003/12/4 15:45,14.5,0,32,0,=,2,=,2,18.9,0,18.1,0
2003/12/4 16:00,14.4,0,35,0,=,2,=,2,18.9,0,17.4,0
2003/12/4 16:15,14.3,0,35,0,=,2,=,2,18.9,0,17.4,0
2003/12/4 16:30,14.3,0,37,0,=,2,=,2,19,0,17.5,0
2003/12/4 16:45,14.4,0,37,0,=,2,=,2,19.1,0,17.5,0
2003/12/4 17:00,14.1,0,36,0,=,2,=,2,19.1,0,17.6,0
2003/12/4 17:15,14.2,0,38,0,=,2,=,2,19.2,0,17.6,0
2003/12/4 17:30,14,0,40,0,=,2,=,2,19.2,0,17.7,0
2003/12/4 17:45,13.8,0,41,0,=,2,=,2,19.3,0,17.7,0
2003/12/4 18:00,14.1,0,42,0,=,2,=,2,19.3,0,18,0
2003/12/4 18:15,14.2,0,42,0,=,2,=,2,19.2,0,18,0
2003/12/4 18:30,14.1,0,43,0,=,2,=,2,19.2,0,18.1,0
2003/12/4 18:45,14.2,0,44,0,=,2,=,2,19.2,0,16.8,0
2003/12/4 19:00,14.1,0,44,0,=,2,=,2,19.2,0,16.8,0
2003/12/4 19:15,14.1,0,44,0,=,2,=,2,19.2,0,15.9,0
2003/12/4 19:30,14,0,45,0,=,2,=,2,19.2,0,16,0
2003/12/4 19:45,13.7,0,46,0,=,2,=,2,19.2,0,16,0
2003/12/4 20:00,13.7,0,46,0,=,2,=,2,19.2,0,16.1,0
2003/12/4 20:15,13.5,0,47,0,=,2,=,2,19.1,0,16.3,0
2003/12/4 20:30,13.7,0,49,0,=,2,=,2,19.1,0,16.4,0
2003/12/4 20:45,13.6,0,49,0,=,2,=,2,19.2,0,16.5,0
2003/12/4 21:00,13.3,0,50,0,=,2,=,2,19.3,0,16.6,0
2003/12/4 21:15,13.2,0,47,0,=,2,=,2,19.4,0,16.7,0
2003/12/4 21:30,13.2,0,47,0,=,2,=,2,19.6,0,15.7,0
2003/12/4 21:45,13.2,0,47,0,=,2,=,2,19.7,0,15.8,0
2003/12/4 22:00,13.2,0,48,0,=,2,=,2,19.8,0,15.9,0
2003/12/4 22:15,12.9,0,47,0,=,2,=,2,19.8,0,16.1,0
2003/12/4 22:30,12.7,0,48,0,=,2,=,2,19.9,0,16.1,0
2003/12/4 22:45,12.8,0,48,0,=,2,=,2,19.8,0,16.5,0
2003/12/4 23:00,12.8,0,48,0,=,2,=,2,19.7,0,16.6,0
2003/12/4 23:15,12.9,0,49,0,=,2,=,2,19.7,0,16.6,0
2003/12/4 23:30,13.1,0,50,0,=,2,=,2,19.6,0,16.7,0
2003/12/4 23:45,13.1,0,50,0,=,2,=,2,19.5,0,16.8,0
2003/12/5 0:00,13.2,0,50,0,=,2,=,2,19.5,0,16.8,0
2003/12/5 0:15,13.1,0,49,0,=,2,=,2,19.5,0,16.9,0
2003/12/5 0:30,13.1,0,49,0,=,2,=,2,19.4,0,16.5,0
2003/12/5 0:45,13,0,48,0,=,2,=,2,19.4,0,16.6,0
2003/12/5 1:00,13,0,48,0,=,2,=,2,19.4,0,16.7,0
2003/12/5 1:15,13.2,0,48,0,=,2,=,2,19.3,0,16.7,0
2003/12/5 1:30,13.1,0,46,0,=,2,=,2,19.3,0,17.4,0
2003/12/5 1:45,13.2,0,45,0,=,2,=,2,19.3,0,17.4,0
2003/12/5 2:00,13.1,0,45,0,=,2,=,2,19.2,0,17.6,0
2003/12/5 2:15,13.1,0,45,0,=,2,=,2,19.2,0,17.7,0
2003/12/5 2:30,13,0,46,0,=,2,=,2,19.2,0,17.7,0
2003/12/5 2:45,12.8,0,48,0,=,2,=,2,19.1,0,17.7,0
2003/12/5 3:00,12.9,0,47,0,=,2,=,2,19.1,0,17.8,0
2003/12/5 3:15,13.1,0,46,0,=,2,=,2,19.1,0,17.8,0
2003/12/5 3:30,13,0,45,0,=,2,=,2,19,0,17.9,0
2003/12/5 3:45,13.1,0,46,0,=,2,=,2,19,0,17.9,0
2003/12/5 4:00,13.1,0,45,0,=,2,=,2,19,0,18,0
2003/12/5 4:15,13.1,0,45,0,=,2,=,2,18.9,0,18,0
2003/12/5 4:30,13.1,0,46,0,=,2,=,2,18.9,0,18.1,0
2003/12/5 4:45,13.1,0,46,0,=,2,=,2,18.9,0,18.1,0
2003/12/5 5:00,13,0,47,0,=,2,=,2,18.9,0,18.2,0
2003/12/5 5:15,13.1,0,46,0,=,2,=,2,18.9,0,18.2,0
2003/12/5 5:30,13.1,0,45,0,=,2,=,2,18.8,0,18.2,0
2003/12/5 5:45,13,0,46,0,=,2,=,2,18.8,0,18.3,0
2003/12/5 6:00,13,0,48,0,=,2,=,2,18.8,0,18.3,0
2003/12/5 6:15,13,0,48,0,=,2,=,2,18.8,0,18.4,0
2003/12/5 6:30,12.9,0,49,0,=,2,=,2,18.8,0,18.4,0
2003/12/5 6:45,12.9,0,50,0,=,2,=,2,18.7,0,18.5,0
2003/12/5 7:00,12.7,0,49,0,=,2,=,2,18.7,0,15.1,0
2003/12/5 7:15,12.7,0,50,0,=,2,=,2,18.7,0,15.1,0
2003/12/5 7:30,12.8,0,48,0,=,2,=,2,18.7,0,15.4,0
2003/12/5 7:45,12.8,0,48,0,=,2,=,2,18.8,0,15.6,0
2003/12/5 8:00,12.9,0,51,0,=,2,=,2,18.9,0,15.3,0
2003/12/5 8:15,12.9,0,51,0,=,2,=,2,18.9,0,15.4,0
2003/12/5 8:30,13,0,50,0,=,2,=,2,18.8,0,15.5,0
2003/12/5 8:45,13.2,0,49,0,=,2,=,2,18.8,0,15.6,0
2003/12/5 9:00,13.4,0,49,0,=,2,=,2,18.7,0,15.7,0
2003/12/5 9:15,13.4,0,50,0,=,2,=,2,18.7,0,15.7,0
2003/12/5 9:30,13.7,0,48,0,=,2,=,2,18.7,0,15.8,0
2003/12/5 9:45,13.8,0,48,0,=,2,=,2,18.6,0,15.9,0
2003/12/5 10:00,13.8,0,47,0,=,2,=,2,18.6,0,16,0
2003/12/5 10:15,14,0,48,0,=,2,=,2,18.6,0,16.1,0
2003/12/5 10:30,15.1,0,46,0,=,2,=,2,18.5,0,16.1,0
2003/12/5 10:45,14.9,0,45,0,=,2,=,2,18.5,0,16.2,0
2003/12/5 11:00,14.9,0,44,0,=,2,=,2,18.5,0,16.3,0
2003/12/5 11:15,15.1,0,41,0,=,2,=,2,18.5,0,16.4,0
2003/12/5 11:30,15.3,0,37,0,=,2,=,2,18.4,0,16.4,0
2003/12/5 11:45,15.5,0,36,0,=,2,=,2,18.4,0,16.5,0
2003/12/5 12:00,15.6,0,34,0,=,2,=,2,18.4,0,16.6,0
2003/12/5 12:15,15.8,0,31,0,=,2,=,2,18.4,0,16.7,0
2003/12/5 12:30,15.8,0,30,0,=,2,=,2,18.4,0,16.7,0
2003/12/5 12:45,15.9,0,31,0,=,2,=,2,18.4,0,16.8,0
2003/12/5 13:00,16,0,30,0,=,2,=,2,18.4,0,16.9,0
2003/12/5 13:15,16.1,0,29,0,=,2,=,2,18.4,0,16.9,0
2003/12/5 13:30,16.1,0,30,0,=,2,=,2,18.4,0,17,0
2003/12/5 13:45,16.1,0,30,0,=,2,=,2,18.4,0,17.1,0
2003/12/5 14:00,16.3,0,30,0,=,2,=,2,18.4,0,17.1,0
2003/12/5 14:15,16.3,0,29,0,=,2,=,2,18.4,0,17.2,0
2003/12/5 14:30,16.2,0,29,0,=,2,=,2,18.4,0,17.2,0
2003/12/5 14:45,16.3,0,31,0,=,2,=,2,18.4,0,17.3,0
2003/12/5 15:00,16.3,0,41,0,=,2,=,2,18.4,0,17.4,0
2003/12/5 15:15,16.4,0,45,0,=,2,=,2,18.5,0,17.4,0
2003/12/5 15:30,16.3,0,46,0,=,2,=,2,18.5,0,17.5,0
2003/12/5 15:45,16.1,0,47,0,=,2,=,2,18.5,0,16.5,0
2003/12/5 16:00,16.1,0,48,0,=,2,=,2,18.6,0,16.3,0
2003/12/5 16:15,16,0,46,0,=,2,=,2,18.7,0,16.3,0
2003/12/5 16:30,15.9,0,37,0,=,2,=,2,18.8,0,16.4,0
2003/12/5 16:45,16.1,0,39,0,=,2,=,2,18.8,0,16.5,0
2003/12/5 17:00,16,0,44,0,=,2,=,2,18.8,0,16.5,0
2003/12/5 17:15,16,0,48,0,=,2,=,2,18.8,0,16.6,0
2003/12/5 17:30,15.9,0,51,0,=,2,=,2,19,0,16.8,0
2003/12/5 17:45,15.8,0,53,0,=,2,=,2,19.2,0,16.9,0
2003/12/5 18:00,15.7,0,52,0,=,2,=,2,19.4,0,16.9,0
2003/12/5 18:15,15.6,0,53,0,=,2,=,2,19.4,0,17,0
2003/12/5 18:30,15.5,0,54,0,=,2,=,2,19.5,0,17,0
2003/12/5 18:45,15.3,0,56,0,=,2,=,2,19.6,0,17.1,0
2003/12/5 19:00,15.3,0,60,0,=,2,=,2,19.6,0,17.2,0
2003/12/5 19:15,15.1,0,58,0,=,2,=,2,19.8,0,16.5,0
2003/12/5 19:30,15,0,58,0,=,2,=,2,19.8,0,16.6,0
2003/12/5 19:45,14.9,0,61,0,=,2,=,2,19.8,0,16.7,0
2003/12/5 20:00,14.8,0,67,0,=,2,=,2,19.7,0,16.2,0
2003/12/5 20:15,14.6,0,70,0,=,2,=,2,19.6,0,16.1,0
2003/12/5 20:30,14.6,0,70,0,=,2,=,2,19.6,0,16.2,0
2003/12/5 20:45,14.6,0,69,0,=,2,=,2,19.7,0,16.3,0
2003/12/5 21:00,14.6,0,67,0,=,2,=,2,19.8,0,15.8,0
2003/12/5 21:15,14.6,0,65,0,=,2,=,2,19.8,0,15.8,0
2003/12/5 21:30,14.5,0,65,0,=,2,=,2,19.8,0,16,0
2003/12/5 21:45,14.4,0,66,0,=,2,=,2,19.8,0,16.1,0
2003/12/5 22:00,14.5,0,68,0,=,2,=,2,19.7,0,16.2,0
2003/12/5 22:15,14.4,0,70,0,=,2,=,2,19.5,0,16.3,0
2003/12/5 22:30,14.2,0,72,0,=,2,=,2,19.4,0,16.3,0
2003/12/5 22:45,14.1,0,74,0,=,2,=,2,19.4,0,16.8,0
2003/12/5 23:00,14.2,0,75,0,=,2,=,2,19.5,0,16.3,0